This is the latest recevied weather packets stored in our database for station/object BARLOW-WX. If no packets are shown the sender has not sent any weather packets the latest 10 day(s).
| Time | Temp. | Humidity | Pressure | Rain* | Wind** | Luminosity | Snow |
|---|---|---|---|---|---|---|---|
| 1787505379 | 21.67° C | 53% | 987.5 hPa | 0 mm | - | - | - |
| 1787504487 | 21.11° C | 53% | 987.5 hPa | 0 mm | - | - | - |
| 1787503579 | 21.11° C | 61% | 986.8 hPa | 0 mm | - | - | - |
| 1787502679 | 21.11° C | 57% | 986.9 hPa | 0 mm | - | - | - |
| 1787501780 | 21.11° C | 57% | 986.9 hPa | 0 mm | - | - | - |
| 1787500891 | 20.56° C | 57% | 986.9 hPa | 0 mm | - | - | - |
| 1787499979 | 20.56° C | 69% | 987.1 hPa | 0 mm | - | - | - |
| 1787499079 | 20.56° C | 65% | 987.5 hPa | 0 mm | - | - | - |
| 1787498178 | 20.56° C | 65% | 987.5 hPa | 0 mm | - | - | - |
| 1787497280 | 20° C | 65% | 987.5 hPa | 0 mm | - | - | - |
| 1787496379 | 20° C | 76% | 988.4 hPa | 0 mm | - | - | - |
| 1787495479 | 19.44° C | 73% | 988.1 hPa | 0 mm | - | - | - |
| 1787494579 | 19.44° C | 73% | 988.1 hPa | 0 mm | - | - | - |
| 1787493679 | 18.89° C | 73% | 988.1 hPa | 0 mm | - | - | - |
| 1787492779 | 18.33° C | 79% | 988.2 hPa | 0 mm | - | - | - |
| 1787491879 | 17.78° C | 79% | 988.2 hPa | 0 mm | - | - | - |
| 1787490981 | 17.78° C | 79% | 988.2 hPa | 0 mm | - | - | - |
| 1787490080 | 17.22° C | 79% | 988.2 hPa | 0 mm | - | - | - |
| 1787489179 | 16.67° C | 87% | 988.6 hPa | 0 mm | - | - | - |
| 1787488280 | 15.56° C | 88% | 987.2 hPa | 0 mm | - | - | - |
| 1787487688 | 15° C | 88% | 987.2 hPa | 0 mm | - | - | - |
| 1787486479 | 14.44° C | 88% | 987.2 hPa | 0 mm | - | - | - |
| 1787485579 | 14.44° C | 88% | 987.5 hPa | 0 mm | - | - | - |
| 1787484679 | 13.89° C | 85% | 987.1 hPa | 0 mm | - | - | - |
| 1787483778 | 14.44° C | 85% | 987.2 hPa | 0 mm | - | - | - |
* Rain latest hour (hover to see other rain measurements)
** Current wind speed in m/s (hover to see current wind gust speed)